Year,Month,Day,Hour,Minute,Value (Times are PST for temperature in C)
2013,05,24,00,00,7.00
2013,05,24,00,01,7.10
2013,05,24,00,02,7.10
2013,05,24,00,03,7.10
2013,05,24,00,04,7.10
2013,05,24,00,05,7.10
2013,05,24,00,06,7.10
2013,05,24,00,07,7.10
2013,05,24,00,08,7.10
2013,05,24,00,09,7.20
2013,05,24,00,10,7.20
2013,05,24,00,11,7.20
2013,05,24,00,12,7.20
2013,05,24,00,13,7.20
2013,05,24,00,14,7.10
2013,05,24,00,15,7.10
2013,05,24,00,16,7.10
2013,05,24,00,17,7.10
2013,05,24,00,18,7.20
2013,05,24,00,19,7.20
2013,05,24,00,20,7.20
2013,05,24,00,21,7.20
2013,05,24,00,22,7.20
2013,05,24,00,23,7.20
2013,05,24,00,24,7.20
2013,05,24,00,25,7.20
2013,05,24,00,26,7.20
2013,05,24,00,27,7.20
2013,05,24,00,28,7.10
2013,05,24,00,29,7.10
2013,05,24,00,30,7.10
2013,05,24,00,31,7.10
2013,05,24,00,32,7.10
2013,05,24,00,33,7.10
2013,05,24,00,34,7.20
2013,05,24,00,35,7.20
2013,05,24,00,36,7.20
2013,05,24,00,37,7.20
2013,05,24,00,38,7.20
2013,05,24,00,39,7.20
2013,05,24,00,40,7.20
2013,05,24,00,41,7.20
2013,05,24,00,42,7.20
2013,05,24,00,43,7.20
2013,05,24,00,44,7.20
2013,05,24,00,45,7.20
2013,05,24,00,46,7.20
2013,05,24,00,47,7.20
2013,05,24,00,48,7.20
2013,05,24,00,49,7.10
2013,05,24,00,50,7.10
2013,05,24,00,51,7.10
2013,05,24,00,52,7.10
2013,05,24,00,53,7.10
2013,05,24,00,54,7.10
2013,05,24,00,55,7.10
2013,05,24,00,56,7.10
2013,05,24,00,57,7.10
2013,05,24,00,58,7.00
2013,05,24,00,59,7.00
2013,05,24,01,00,7.00
2013,05,24,01,01,7.00
2013,05,24,01,02,6.90
2013,05,24,01,03,6.90
2013,05,24,01,04,6.90
2013,05,24,01,05,6.90
2013,05,24,01,06,6.90
2013,05,24,01,07,6.80
2013,05,24,01,08,6.80
2013,05,24,01,09,6.80
2013,05,24,01,10,6.80
2013,05,24,01,11,6.70
2013,05,24,01,12,6.70
2013,05,24,01,13,6.70
2013,05,24,01,14,6.70
2013,05,24,01,15,6.60
2013,05,24,01,16,6.60
2013,05,24,01,17,6.60
2013,05,24,01,18,6.60
2013,05,24,01,19,6.60
2013,05,24,01,20,6.60
2013,05,24,01,21,6.60
2013,05,24,01,22,6.60
2013,05,24,01,23,6.60
2013,05,24,01,24,6.60
2013,05,24,01,25,6.60
2013,05,24,01,26,6.60
2013,05,24,01,27,6.70
2013,05,24,01,28,6.70
2013,05,24,01,29,6.70
2013,05,24,01,30,6.70
2013,05,24,01,31,6.70
2013,05,24,01,32,6.70
2013,05,24,01,33,6.70
2013,05,24,01,34,6.70
2013,05,24,01,35,6.70
2013,05,24,01,36,6.70
2013,05,24,01,37,6.60
2013,05,24,01,38,6.60
2013,05,24,01,39,6.60
2013,05,24,01,40,6.60
2013,05,24,01,41,6.60
2013,05,24,01,42,6.60
2013,05,24,01,43,6.60
2013,05,24,01,44,6.60
2013,05,24,01,45,6.60
2013,05,24,01,46,6.50
2013,05,24,01,47,6.50
2013,05,24,01,48,6.50
2013,05,24,01,49,6.50
2013,05,24,01,50,6.50
2013,05,24,01,51,6.50
2013,05,24,01,52,6.50
2013,05,24,01,53,6.50
2013,05,24,01,54,6.50
2013,05,24,01,55,6.50
2013,05,24,01,56,6.50
2013,05,24,01,57,6.40
2013,05,24,01,58,6.40
2013,05,24,01,59,6.40
2013,05,24,02,00,6.40
2013,05,24,02,01,6.40
2013,05,24,02,02,6.50
2013,05,24,02,03,6.50
2013,05,24,02,04,6.60
2013,05,24,02,05,6.60
2013,05,24,02,06,6.60
2013,05,24,02,07,6.60
2013,05,24,02,08,6.60
2013,05,24,02,09,6.60
2013,05,24,02,10,6.60
2013,05,24,02,11,6.60
2013,05,24,02,12,6.60
2013,05,24,02,13,6.60
2013,05,24,02,14,6.60
2013,05,24,02,15,6.60
2013,05,24,02,16,6.60
2013,05,24,02,17,6.50
2013,05,24,02,18,6.50
2013,05,24,02,19,6.50
2013,05,24,02,20,6.60
2013,05,24,02,21,6.60
2013,05,24,02,22,6.60
2013,05,24,02,23,6.60
2013,05,24,02,24,6.70
2013,05,24,02,25,6.70
2013,05,24,02,26,6.70
2013,05,24,02,27,6.80
2013,05,24,02,28,6.80
2013,05,24,02,29,6.90
2013,05,24,02,30,6.90
2013,05,24,02,31,6.90
2013,05,24,02,32,6.90
2013,05,24,02,33,6.90
2013,05,24,02,34,6.90
2013,05,24,02,35,6.90
2013,05,24,02,36,6.80
2013,05,24,02,37,6.80
2013,05,24,02,38,6.70
2013,05,24,02,39,6.70
2013,05,24,02,40,6.70
2013,05,24,02,41,6.60
2013,05,24,02,42,6.50
2013,05,24,02,43,6.50
2013,05,24,02,44,6.40
2013,05,24,02,45,6.30
2013,05,24,02,46,6.30
2013,05,24,02,47,6.20
2013,05,24,02,48,6.20
2013,05,24,02,49,6.10
2013,05,24,02,50,6.10
2013,05,24,02,51,6.00
2013,05,24,02,52,6.00
2013,05,24,02,53,5.90
2013,05,24,02,54,5.90
2013,05,24,02,55,5.90
2013,05,24,02,56,5.90
2013,05,24,02,57,5.90
2013,05,24,02,58,5.90
2013,05,24,02,59,5.90
2013,05,24,03,00,5.90
2013,05,24,03,01,5.90
2013,05,24,03,02,5.90
2013,05,24,03,03,5.90
2013,05,24,03,04,5.90
2013,05,24,03,05,5.90
2013,05,24,03,06,5.80
2013,05,24,03,07,5.80
2013,05,24,03,08,5.80
2013,05,24,03,09,5.80
2013,05,24,03,10,5.90
2013,05,24,03,11,5.90
2013,05,24,03,12,5.90
2013,05,24,03,13,6.00
2013,05,24,03,14,6.10
2013,05,24,03,15,6.10
2013,05,24,03,16,6.20
2013,05,24,03,17,6.20
2013,05,24,03,18,6.30
2013,05,24,03,19,6.30
2013,05,24,03,20,6.30
2013,05,24,03,21,6.30
2013,05,24,03,22,6.30
2013,05,24,03,23,6.30
2013,05,24,03,24,6.30
2013,05,24,03,25,6.30
2013,05,24,03,26,6.30
2013,05,24,03,27,6.30
2013,05,24,03,28,6.30
2013,05,24,03,29,6.30
2013,05,24,03,30,6.20
2013,05,24,03,31,6.20
2013,05,24,03,32,6.20
2013,05,24,03,33,6.20
2013,05,24,03,34,6.20
2013,05,24,03,35,6.20
2013,05,24,03,36,6.10
2013,05,24,03,37,6.10
2013,05,24,03,38,6.10
2013,05,24,03,39,6.10
2013,05,24,03,40,6.10
2013,05,24,03,41,6.10
2013,05,24,03,42,6.10
2013,05,24,03,43,6.10
2013,05,24,03,44,6.10
2013,05,24,03,45,6.10
2013,05,24,03,46,6.10
2013,05,24,03,47,6.10
2013,05,24,03,48,6.00
2013,05,24,03,49,6.00
2013,05,24,03,50,6.00
2013,05,24,03,51,6.00
2013,05,24,03,52,6.00
2013,05,24,03,53,6.00
2013,05,24,03,54,5.90
2013,05,24,03,55,5.90
2013,05,24,03,56,5.90
2013,05,24,03,57,5.90
2013,05,24,03,58,5.90
2013,05,24,03,59,5.90
2013,05,24,04,00,5.90
2013,05,24,04,01,5.90
2013,05,24,04,02,5.90
2013,05,24,04,03,5.90
2013,05,24,04,04,5.80
2013,05,24,04,05,5.80
2013,05,24,04,06,5.80
2013,05,24,04,07,5.80
2013,05,24,04,08,5.70
2013,05,24,04,09,5.70
2013,05,24,04,10,5.70
2013,05,24,04,11,5.70
2013,05,24,04,12,5.70
2013,05,24,04,13,5.70
2013,05,24,04,14,5.70
2013,05,24,04,15,5.60
2013,05,24,04,16,5.60
2013,05,24,04,17,5.60
2013,05,24,04,18,5.60
2013,05,24,04,19,5.60
2013,05,24,04,20,5.60
2013,05,24,04,21,5.60
2013,05,24,04,22,5.60
2013,05,24,04,23,5.60
2013,05,24,04,24,5.60
2013,05,24,04,25,5.60
2013,05,24,04,26,5.60
2013,05,24,04,27,5.50
2013,05,24,04,28,5.50
2013,05,24,04,29,5.50
2013,05,24,04,30,5.50
2013,05,24,04,31,5.60
2013,05,24,04,32,5.60
2013,05,24,04,33,5.60
2013,05,24,04,34,5.60
2013,05,24,04,35,5.60
2013,05,24,04,36,5.60
2013,05,24,04,37,5.60
2013,05,24,04,38,5.60
2013,05,24,04,39,5.60
2013,05,24,04,40,5.60
2013,05,24,04,41,5.60
2013,05,24,04,42,5.50
2013,05,24,04,43,5.50
2013,05,24,04,44,5.50
2013,05,24,04,45,5.50
2013,05,24,04,46,5.50
2013,05,24,04,47,5.50
2013,05,24,04,48,5.40
2013,05,24,04,49,5.40
2013,05,24,04,50,5.40
2013,05,24,04,51,5.40
2013,05,24,04,52,5.40
2013,05,24,04,53,5.40
2013,05,24,04,54,5.40
2013,05,24,04,55,5.40
2013,05,24,04,56,5.40
2013,05,24,04,57,5.40
2013,05,24,04,58,5.40
2013,05,24,04,59,5.40
2013,05,24,05,00,5.40
2013,05,24,05,01,5.40
2013,05,24,05,02,5.40
2013,05,24,05,03,5.40
2013,05,24,05,04,5.30
2013,05,24,05,05,5.30
2013,05,24,05,06,5.30
2013,05,24,05,07,5.30
2013,05,24,05,08,5.30
2013,05,24,05,09,5.30
2013,05,24,05,10,5.40
2013,05,24,05,11,5.40
2013,05,24,05,12,5.40
2013,05,24,05,13,5.40
2013,05,24,05,14,5.40
2013,05,24,05,15,5.40
2013,05,24,05,16,5.40
2013,05,24,05,17,5.40
2013,05,24,05,18,5.40
2013,05,24,05,19,5.40
2013,05,24,05,20,5.30
2013,05,24,05,21,5.30
2013,05,24,05,22,5.30
2013,05,24,05,23,5.30
2013,05,24,05,24,5.30
2013,05,24,05,25,5.30
2013,05,24,05,26,5.20
2013,05,24,05,27,5.20
2013,05,24,05,28,5.30
2013,05,24,05,29,5.30
2013,05,24,05,30,5.30
2013,05,24,05,31,5.30
2013,05,24,05,32,5.40
2013,05,24,05,33,5.40
2013,05,24,05,34,5.40
2013,05,24,05,35,5.40
2013,05,24,05,36,5.40
2013,05,24,05,37,5.40
2013,05,24,05,38,5.40
2013,05,24,05,39,5.40
2013,05,24,05,40,5.40
2013,05,24,05,41,5.40
2013,05,24,05,42,5.40
2013,05,24,05,43,5.30
2013,05,24,05,44,5.30
2013,05,24,05,45,5.30
2013,05,24,05,46,5.30
2013,05,24,05,47,5.20
2013,05,24,05,48,5.20
2013,05,24,05,49,5.20
2013,05,24,05,50,5.10
2013,05,24,05,51,5.10
2013,05,24,05,52,5.10
2013,05,24,05,53,5.10
2013,05,24,05,54,5.10
2013,05,24,05,55,5.10
2013,05,24,05,56,5.10
2013,05,24,05,57,5.10
2013,05,24,05,58,5.10
2013,05,24,05,59,5.10
2013,05,24,06,00,5.10
2013,05,24,06,01,5.20
2013,05,24,06,02,5.20
2013,05,24,06,03,5.20
2013,05,24,06,04,5.20
2013,05,24,06,05,5.20
2013,05,24,06,06,5.20
2013,05,24,06,07,5.30
2013,05,24,06,08,5.30
2013,05,24,06,09,5.30
2013,05,24,06,10,5.30
2013,05,24,06,11,5.30
2013,05,24,06,12,5.30
2013,05,24,06,13,5.30
2013,05,24,06,14,5.40
2013,05,24,06,15,5.40
2013,05,24,06,16,5.40
2013,05,24,06,17,5.40
2013,05,24,06,18,5.50
2013,05,24,06,19,5.50
2013,05,24,06,20,5.50
2013,05,24,06,21,5.60
2013,05,24,06,22,5.60
2013,05,24,06,23,5.60
2013,05,24,06,24,5.60
2013,05,24,06,25,5.60
2013,05,24,06,26,5.60
2013,05,24,06,27,5.60
2013,05,24,06,28,5.60
2013,05,24,06,29,5.60
2013,05,24,06,30,5.60
2013,05,24,06,31,5.60
2013,05,24,06,32,5.60
2013,05,24,06,33,5.60
2013,05,24,06,34,5.60
2013,05,24,06,35,5.60
2013,05,24,06,36,5.60
2013,05,24,06,37,5.60
2013,05,24,06,38,5.60
2013,05,24,06,39,5.60
2013,05,24,06,40,5.60
2013,05,24,06,41,5.60
2013,05,24,06,42,5.60
2013,05,24,06,43,5.60
2013,05,24,06,44,5.60
2013,05,24,06,45,5.60
2013,05,24,06,46,5.60
2013,05,24,06,47,5.60
2013,05,24,06,48,5.70
2013,05,24,06,49,5.70
2013,05,24,06,50,5.70
2013,05,24,06,51,5.70
2013,05,24,06,52,5.70
2013,05,24,06,53,5.70
2013,05,24,06,54,5.70
2013,05,24,06,55,5.80
2013,05,24,06,56,5.80
2013,05,24,06,57,5.80
2013,05,24,06,58,5.90
2013,05,24,06,59,5.90
2013,05,24,07,00,5.90
2013,05,24,07,01,6.00
2013,05,24,07,02,6.00
2013,05,24,07,03,6.00
2013,05,24,07,04,6.00
2013,05,24,07,05,6.00
2013,05,24,07,06,6.10
2013,05,24,07,07,6.10
2013,05,24,07,08,6.10
2013,05,24,07,09,6.10
2013,05,24,07,10,6.20
2013,05,24,07,11,6.20
2013,05,24,07,12,6.20
2013,05,24,07,13,6.30
2013,05,24,07,14,6.30
2013,05,24,07,15,6.30
2013,05,24,07,16,6.40
2013,05,24,07,17,6.40
2013,05,24,07,18,6.50
2013,05,24,07,19,6.60
2013,05,24,07,20,6.70
2013,05,24,07,21,6.80
2013,05,24,07,22,6.80
2013,05,24,07,23,6.90
2013,05,24,07,24,7.00
2013,05,24,07,25,7.10
2013,05,24,07,26,7.10
2013,05,24,07,27,7.20
2013,05,24,07,28,7.20
2013,05,24,07,29,7.20
2013,05,24,07,30,7.30
2013,05,24,07,31,7.30
2013,05,24,07,32,7.30
2013,05,24,07,33,7.40
2013,05,24,07,34,7.40
2013,05,24,07,35,7.50
2013,05,24,07,36,7.50
2013,05,24,07,37,7.60
2013,05,24,07,38,7.60
2013,05,24,07,39,7.60
2013,05,24,07,40,7.60
2013,05,24,07,41,7.70
2013,05,24,07,42,7.70
2013,05,24,07,43,7.70
2013,05,24,07,44,7.70
2013,05,24,07,45,7.70
2013,05,24,07,46,7.70
2013,05,24,07,47,7.70
2013,05,24,07,48,7.70
2013,05,24,07,49,7.80
2013,05,24,07,50,7.80
2013,05,24,07,51,7.80
2013,05,24,07,52,7.80
2013,05,24,07,53,7.80
2013,05,24,07,54,7.80
2013,05,24,07,55,7.90
2013,05,24,07,56,7.90
2013,05,24,07,57,8.00
2013,05,24,07,58,8.10
2013,05,24,07,59,8.10
2013,05,24,08,00,8.20
2013,05,24,08,01,8.20
2013,05,24,08,02,8.30
2013,05,24,08,03,8.30
2013,05,24,08,04,8.30
2013,05,24,08,05,8.40
2013,05,24,08,06,8.40
2013,05,24,08,07,8.50
2013,05,24,08,08,8.50
2013,05,24,08,09,8.60
2013,05,24,08,10,8.60
2013,05,24,08,11,8.70
2013,05,24,08,12,8.70
2013,05,24,08,13,8.80
2013,05,24,08,14,8.80
2013,05,24,08,15,8.80
2013,05,24,08,16,8.90
2013,05,24,08,17,8.90
2013,05,24,08,18,8.90
2013,05,24,08,19,8.90
2013,05,24,08,20,9.00
2013,05,24,08,21,9.00
2013,05,24,08,22,9.00
2013,05,24,08,23,9.00
2013,05,24,08,24,9.00
2013,05,24,08,25,9.00
2013,05,24,08,26,9.00
2013,05,24,08,27,9.10
2013,05,24,08,28,9.10
2013,05,24,08,29,9.10
2013,05,24,08,30,9.10
2013,05,24,08,31,9.10
2013,05,24,08,32,9.10
2013,05,24,08,33,9.10
2013,05,24,08,34,9.10
2013,05,24,08,35,9.20
2013,05,24,08,36,9.20
2013,05,24,08,37,9.30
2013,05,24,08,38,9.30
2013,05,24,08,39,9.40
2013,05,24,08,40,9.50
2013,05,24,08,41,9.50
2013,05,24,08,42,9.60
2013,05,24,08,43,9.60
2013,05,24,08,44,9.70
2013,05,24,08,45,9.70
2013,05,24,08,46,9.80
2013,05,24,08,47,9.80
2013,05,24,08,48,9.80
2013,05,24,08,49,9.80
2013,05,24,08,50,9.70
2013,05,24,08,51,9.70
2013,05,24,08,52,9.70
2013,05,24,08,53,9.70
2013,05,24,08,54,9.70
2013,05,24,08,55,9.70
2013,05,24,08,56,9.80
2013,05,24,08,57,9.80
2013,05,24,08,58,9.90
2013,05,24,08,59,9.90
2013,05,24,09,00,9.90
2013,05,24,09,01,10.00
2013,05,24,09,02,10.00
2013,05,24,09,03,10.10
2013,05,24,09,04,10.10
2013,05,24,09,05,10.20
2013,05,24,09,06,10.20
2013,05,24,09,07,10.20
2013,05,24,09,08,10.20
2013,05,24,09,09,10.20
2013,05,24,09,10,10.20
2013,05,24,09,11,10.20
2013,05,24,09,12,10.20
2013,05,24,09,13,10.20
2013,05,24,09,14,10.20
2013,05,24,09,15,10.30
2013,05,24,09,16,10.30
2013,05,24,09,17,10.30
2013,05,24,09,18,10.30
2013,05,24,09,19,10.40
2013,05,24,09,20,10.50
2013,05,24,09,21,10.50
2013,05,24,09,22,10.60
2013,05,24,09,23,10.70
2013,05,24,09,24,10.80
2013,05,24,09,25,10.90
2013,05,24,09,26,10.90
2013,05,24,09,27,10.90
2013,05,24,09,28,11.00
2013,05,24,09,29,11.10
2013,05,24,09,30,11.10
2013,05,24,09,31,11.10
2013,05,24,09,32,11.20
2013,05,24,09,33,11.20
2013,05,24,09,34,11.20
2013,05,24,09,35,11.20
2013,05,24,09,36,11.10
2013,05,24,09,37,11.10
2013,05,24,09,38,11.20
2013,05,24,09,39,11.20
2013,05,24,09,40,11.20
2013,05,24,09,41,11.30
2013,05,24,09,42,11.30
2013,05,24,09,43,11.30
2013,05,24,09,44,11.30
2013,05,24,09,45,11.40
2013,05,24,09,46,11.40
2013,05,24,09,47,11.40
2013,05,24,09,48,11.40
2013,05,24,09,49,11.40
2013,05,24,09,50,11.40
2013,05,24,09,51,11.40
2013,05,24,09,52,11.40
2013,05,24,09,53,11.40
2013,05,24,09,54,11.40
2013,05,24,09,55,11.40
2013,05,24,09,56,11.40
2013,05,24,09,57,11.40
2013,05,24,09,58,11.50
2013,05,24,09,59,11.50
2013,05,24,10,00,11.60
2013,05,24,10,01,11.60
2013,05,24,10,02,11.70
2013,05,24,10,03,11.70
2013,05,24,10,04,11.70
2013,05,24,10,05,11.80
2013,05,24,10,06,11.80
2013,05,24,10,07,11.80
2013,05,24,10,08,11.80
2013,05,24,10,09,11.80
2013,05,24,10,10,11.80
2013,05,24,10,11,11.90
2013,05,24,10,12,11.90
2013,05,24,10,13,11.90
2013,05,24,10,14,11.90
2013,05,24,10,15,11.90
2013,05,24,10,16,11.90
2013,05,24,10,17,11.90
2013,05,24,10,18,11.90
2013,05,24,10,19,11.90
2013,05,24,10,20,11.80
2013,05,24,10,21,11.90
2013,05,24,10,22,11.90
2013,05,24,10,23,11.90
2013,05,24,10,24,12.00
2013,05,24,10,25,12.00
2013,05,24,10,26,12.00
2013,05,24,10,27,12.00
2013,05,24,10,28,12.00
2013,05,24,10,29,11.90
2013,05,24,10,30,11.90
2013,05,24,10,31,11.90
2013,05,24,10,32,11.80
2013,05,24,10,33,11.80
2013,05,24,10,34,11.80
2013,05,24,10,35,11.90
2013,05,24,10,36,11.90
2013,05,24,10,37,11.90
2013,05,24,10,38,11.90
2013,05,24,10,39,11.80
2013,05,24,10,40,11.80
2013,05,24,10,41,11.80
2013,05,24,10,42,11.80
2013,05,24,10,43,11.80
2013,05,24,10,44,11.80
2013,05,24,10,45,11.90
2013,05,24,10,46,11.90
2013,05,24,10,47,11.90
2013,05,24,10,48,11.90
2013,05,24,10,49,11.90
2013,05,24,10,50,12.00
2013,05,24,10,51,12.00
2013,05,24,10,52,12.00
2013,05,24,10,53,12.00
2013,05,24,10,54,12.00
2013,05,24,10,55,11.90
2013,05,24,10,56,11.90
2013,05,24,10,57,11.90
2013,05,24,10,58,11.90
2013,05,24,10,59,12.00
2013,05,24,11,00,12.00
2013,05,24,11,01,12.10
2013,05,24,11,02,12.10
2013,05,24,11,03,12.10
2013,05,24,11,04,12.10
2013,05,24,11,05,12.00
2013,05,24,11,06,12.00
2013,05,24,11,07,12.00
2013,05,24,11,08,12.00
2013,05,24,11,09,12.00
2013,05,24,11,10,12.00
2013,05,24,11,11,12.00
2013,05,24,11,12,12.00
2013,05,24,11,13,12.00
2013,05,24,11,14,12.00
2013,05,24,11,15,12.00
2013,05,24,11,16,12.00
2013,05,24,11,17,12.10
2013,05,24,11,18,12.10
2013,05,24,11,19,12.10
2013,05,24,11,20,12.10
2013,05,24,11,21,12.10
2013,05,24,11,22,12.10
2013,05,24,11,23,12.10
2013,05,24,11,24,12.20
2013,05,24,11,25,12.20
2013,05,24,11,26,12.30
2013,05,24,11,27,12.30
2013,05,24,11,28,12.30
2013,05,24,11,29,12.40
2013,05,24,11,30,12.40
2013,05,24,11,31,12.50
2013,05,24,11,32,12.50
2013,05,24,11,33,12.60
2013,05,24,11,34,12.60
2013,05,24,11,35,12.70
2013,05,24,11,36,12.70
2013,05,24,11,37,12.70
2013,05,24,11,38,12.70
2013,05,24,11,39,12.70
2013,05,24,11,40,12.70
2013,05,24,11,41,12.80
2013,05,24,11,42,12.80
2013,05,24,11,43,12.80
2013,05,24,11,44,12.80
2013,05,24,11,45,12.80
2013,05,24,11,46,12.80
2013,05,24,11,47,12.90
2013,05,24,11,48,12.90
2013,05,24,11,49,13.00
2013,05,24,11,50,13.00
2013,05,24,11,51,13.00
2013,05,24,11,52,13.10
2013,05,24,11,53,13.10
2013,05,24,11,54,13.10
2013,05,24,11,55,13.10
2013,05,24,11,56,13.20
2013,05,24,11,57,13.20
2013,05,24,11,58,13.20
2013,05,24,11,59,13.20
2013,05,24,12,00,13.30
2013,05,24,12,01,13.30
2013,05,24,12,02,13.30
2013,05,24,12,03,13.30
2013,05,24,12,04,13.30
2013,05,24,12,05,13.20
2013,05,24,12,06,13.20
2013,05,24,12,07,13.10
2013,05,24,12,08,13.10
2013,05,24,12,09,13.10
2013,05,24,12,10,13.00
2013,05,24,12,11,12.90
2013,05,24,12,12,12.80
2013,05,24,12,13,12.80
2013,05,24,12,14,12.80
2013,05,24,12,15,12.80
2013,05,24,12,16,12.80
2013,05,24,12,17,12.80
2013,05,24,12,18,12.90
2013,05,24,12,19,12.90
2013,05,24,12,20,13.00
2013,05,24,12,21,13.00
2013,05,24,12,22,13.00
2013,05,24,12,23,13.00
2013,05,24,12,24,12.90
2013,05,24,12,25,12.90
2013,05,24,12,26,12.90
2013,05,24,12,27,12.90
2013,05,24,12,28,12.90
2013,05,24,12,29,12.90
2013,05,24,12,30,13.00
2013,05,24,12,31,13.00
2013,05,24,12,32,13.00
2013,05,24,12,33,13.00
2013,05,24,12,34,13.00
2013,05,24,12,35,13.00
2013,05,24,12,36,13.00
2013,05,24,12,37,12.90
2013,05,24,12,38,12.90
2013,05,24,12,39,12.90
2013,05,24,12,40,12.90
2013,05,24,12,41,12.90
2013,05,24,12,42,12.90
2013,05,24,12,43,12.90
2013,05,24,12,44,12.90
2013,05,24,12,45,12.90
2013,05,24,12,46,12.90
2013,05,24,12,47,12.90
2013,05,24,12,48,12.90
2013,05,24,12,49,13.00
2013,05,24,12,50,13.00
2013,05,24,12,51,13.00
2013,05,24,12,52,13.00
2013,05,24,12,53,13.00
2013,05,24,12,54,13.00
2013,05,24,12,55,13.00
2013,05,24,12,56,13.00
2013,05,24,12,57,12.90
2013,05,24,12,58,12.90
2013,05,24,12,59,12.90
2013,05,24,13,00,12.90
2013,05,24,13,01,12.90
2013,05,24,13,02,13.00
2013,05,24,13,03,13.00
2013,05,24,13,04,13.00
2013,05,24,13,05,13.00
2013,05,24,13,06,12.90
2013,05,24,13,07,12.90
2013,05,24,13,08,12.90
2013,05,24,13,09,12.80
2013,05,24,13,10,12.70
2013,05,24,13,11,12.60
2013,05,24,13,12,12.50
2013,05,24,13,13,12.40
2013,05,24,13,14,12.40
2013,05,24,13,15,12.40
2013,05,24,13,16,12.30
2013,05,24,13,17,12.30
2013,05,24,13,18,12.30
2013,05,24,13,19,12.30
2013,05,24,13,20,12.30
2013,05,24,13,21,12.30
2013,05,24,13,22,12.30
2013,05,24,13,23,12.30
2013,05,24,13,24,12.30
2013,05,24,13,25,12.40
2013,05,24,13,26,12.40
2013,05,24,13,27,12.40
2013,05,24,13,28,12.40
2013,05,24,13,29,12.50
2013,05,24,13,30,12.50
2013,05,24,13,31,12.60
2013,05,24,13,32,12.60
2013,05,24,13,33,12.70
2013,05,24,13,34,12.70
2013,05,24,13,35,12.70
2013,05,24,13,36,12.80
2013,05,24,13,37,12.80
2013,05,24,13,38,12.80
2013,05,24,13,39,12.80
2013,05,24,13,40,12.80
2013,05,24,13,41,12.80
2013,05,24,13,42,12.80
2013,05,24,13,43,12.80
2013,05,24,13,44,12.90
2013,05,24,13,45,12.90
2013,05,24,13,46,12.90
2013,05,24,13,47,12.90
2013,05,24,13,48,12.80
2013,05,24,13,49,12.80
2013,05,24,13,50,12.70
2013,05,24,13,51,12.70
2013,05,24,13,52,12.60
2013,05,24,13,53,12.60
2013,05,24,13,54,12.60
2013,05,24,13,55,12.60
2013,05,24,13,56,12.60
2013,05,24,13,57,12.60
2013,05,24,13,58,12.70
2013,05,24,13,59,12.70
2013,05,24,14,00,12.70
2013,05,24,14,01,12.80
2013,05,24,14,02,12.80
2013,05,24,14,03,12.90
2013,05,24,14,04,12.80
2013,05,24,14,05,12.80
2013,05,24,14,06,12.90
2013,05,24,14,07,12.90
2013,05,24,14,08,12.90
2013,05,24,14,09,12.90
2013,05,24,14,10,13.00
2013,05,24,14,11,13.00
2013,05,24,14,12,13.10
2013,05,24,14,13,13.10
2013,05,24,14,14,13.10
2013,05,24,14,15,13.00
2013,05,24,14,16,13.00
2013,05,24,14,17,13.10
2013,05,24,14,18,13.10
2013,05,24,14,19,13.10
2013,05,24,14,20,13.10
2013,05,24,14,21,13.00
2013,05,24,14,22,13.00
2013,05,24,14,23,13.00
2013,05,24,14,24,12.90
2013,05,24,14,25,12.90
2013,05,24,14,26,12.90
2013,05,24,14,27,12.90
2013,05,24,14,28,12.90
2013,05,24,14,29,12.90
2013,05,24,14,30,12.80
2013,05,24,14,31,12.80
2013,05,24,14,32,12.70
2013,05,24,14,33,12.70
2013,05,24,14,34,12.60
2013,05,24,14,35,12.50
2013,05,24,14,36,12.50
2013,05,24,14,37,12.50
2013,05,24,14,38,12.50
2013,05,24,14,39,12.50
2013,05,24,14,40,12.60
2013,05,24,14,41,12.50
2013,05,24,14,42,12.50
2013,05,24,14,43,12.40
2013,05,24,14,44,12.40
2013,05,24,14,45,12.50
2013,05,24,14,46,12.50
2013,05,24,14,47,12.50
2013,05,24,14,48,12.50
2013,05,24,14,49,12.40
2013,05,24,14,50,12.30
2013,05,24,14,51,12.30
2013,05,24,14,52,12.30
2013,05,24,14,53,12.30
2013,05,24,14,54,12.40
2013,05,24,14,55,12.40
2013,05,24,14,56,12.40
2013,05,24,14,57,12.50
2013,05,24,14,58,12.60
2013,05,24,14,59,12.70
2013,05,24,15,00,12.80
2013,05,24,15,01,12.90
2013,05,24,15,02,12.90
2013,05,24,15,03,13.00
2013,05,24,15,04,13.10
2013,05,24,15,05,13.10
2013,05,24,15,06,13.10
2013,05,24,15,07,13.20
2013,05,24,15,08,13.20
2013,05,24,15,09,13.20
2013,05,24,15,10,13.20
2013,05,24,15,11,13.30
2013,05,24,15,12,13.30
2013,05,24,15,13,13.20
2013,05,24,15,14,13.20
2013,05,24,15,15,13.10
2013,05,24,15,16,13.10
2013,05,24,15,17,13.10
2013,05,24,15,18,13.10
2013,05,24,15,19,13.10
2013,05,24,15,20,13.00
2013,05,24,15,21,13.00
2013,05,24,15,22,12.90
2013,05,24,15,23,12.90
2013,05,24,15,24,13.00
2013,05,24,15,25,13.10
2013,05,24,15,26,13.10
2013,05,24,15,27,13.10
2013,05,24,15,28,13.10
2013,05,24,15,29,13.10
2013,05,24,15,30,13.10
2013,05,24,15,31,13.10
2013,05,24,15,32,13.10
2013,05,24,15,33,13.10
2013,05,24,15,34,13.10
2013,05,24,15,35,13.10
2013,05,24,15,36,13.00
2013,05,24,15,37,13.00
2013,05,24,15,38,12.90
2013,05,24,15,39,12.90
2013,05,24,15,40,12.90
2013,05,24,15,41,12.90
2013,05,24,15,42,12.90
2013,05,24,15,43,12.80
2013,05,24,15,44,12.80
2013,05,24,15,45,12.80
2013,05,24,15,46,12.80
2013,05,24,15,47,12.90
2013,05,24,15,48,12.90
2013,05,24,15,49,12.80
2013,05,24,15,50,12.70
2013,05,24,15,51,12.60
2013,05,24,15,52,12.50
2013,05,24,15,53,12.50
2013,05,24,15,54,12.60
2013,05,24,15,55,12.60
2013,05,24,15,56,12.50
2013,05,24,15,57,12.40
2013,05,24,15,58,12.40
2013,05,24,15,59,12.30
2013,05,24,16,00,12.30
2013,05,24,16,01,12.30
2013,05,24,16,02,12.40
2013,05,24,16,03,12.40
2013,05,24,16,04,12.40
2013,05,24,16,05,12.40
2013,05,24,16,06,12.40
2013,05,24,16,07,12.40
2013,05,24,16,08,12.40
2013,05,24,16,09,12.40
2013,05,24,16,10,12.40
2013,05,24,16,11,12.50
2013,05,24,16,12,12.60
2013,05,24,16,13,12.70
2013,05,24,16,14,12.80
2013,05,24,16,15,12.80
2013,05,24,16,16,12.80
2013,05,24,16,17,12.80
2013,05,24,16,18,12.80
2013,05,24,16,19,12.80
2013,05,24,16,20,12.70
2013,05,24,16,21,12.60
2013,05,24,16,22,12.60
2013,05,24,16,23,12.60
2013,05,24,16,24,12.50
2013,05,24,16,25,12.50
2013,05,24,16,26,12.40
2013,05,24,16,27,12.40
2013,05,24,16,28,12.40
2013,05,24,16,29,12.30
2013,05,24,16,30,12.30
2013,05,24,16,31,12.20
2013,05,24,16,32,12.10
2013,05,24,16,33,12.00
2013,05,24,16,34,11.90
2013,05,24,16,35,11.80
2013,05,24,16,36,11.80
2013,05,24,16,37,11.70
2013,05,24,16,38,11.70
2013,05,24,16,39,11.60
2013,05,24,16,40,11.60
2013,05,24,16,41,11.60
2013,05,24,16,42,11.50
2013,05,24,16,43,11.40
2013,05,24,16,44,11.50
2013,05,24,16,45,11.50
2013,05,24,16,46,11.50
2013,05,24,16,47,11.50
2013,05,24,16,48,11.50
2013,05,24,16,49,11.70
2013,05,24,16,50,11.80
2013,05,24,16,51,11.90
2013,05,24,16,52,12.00
2013,05,24,16,53,12.10
2013,05,24,16,54,12.20
2013,05,24,16,55,12.30
2013,05,24,16,56,12.40
2013,05,24,16,57,12.60
2013,05,24,16,58,12.70
2013,05,24,16,59,12.80
2013,05,24,17,00,12.90
2013,05,24,17,01,13.00
2013,05,24,17,02,13.00
2013,05,24,17,03,13.00
2013,05,24,17,04,13.00
2013,05,24,17,05,13.10
2013,05,24,17,06,13.10
2013,05,24,17,07,13.10
2013,05,24,17,08,13.10
2013,05,24,17,09,13.10
2013,05,24,17,10,13.10
2013,05,24,17,11,13.10
2013,05,24,17,12,13.10
2013,05,24,17,13,13.10
2013,05,24,17,14,13.10
2013,05,24,17,15,13.10
2013,05,24,17,16,13.10
2013,05,24,17,17,13.20
2013,05,24,17,18,13.30
2013,05,24,17,19,13.30
2013,05,24,17,20,13.40
2013,05,24,17,21,13.50
2013,05,24,17,22,13.50
2013,05,24,17,23,13.50
2013,05,24,17,24,13.50
2013,05,24,17,25,13.50
2013,05,24,17,26,13.40
2013,05,24,17,27,13.40
2013,05,24,17,28,13.40
2013,05,24,17,29,13.50
2013,05,24,17,30,13.50
2013,05,24,17,31,13.50
2013,05,24,17,32,13.60
2013,05,24,17,33,13.60
2013,05,24,17,34,13.60
2013,05,24,17,35,13.60
2013,05,24,17,36,13.60
2013,05,24,17,37,13.60
2013,05,24,17,38,13.60
2013,05,24,17,39,13.50
2013,05,24,17,40,13.40
2013,05,24,17,41,13.40
2013,05,24,17,42,13.40